Tracking 29892 objects as of 21-Nov-2024
HD Live streaming from Space Station
objects crossing your sky now

STARLINK-30324

Track STARLINK-30324 now!
10-day predictions
STARLINK-30324 is classified as:


NORAD ID: 57640
Int'l Code: 2023-122J
Perigee: 565.3 km
Apogee: 567.2 km
Inclination: 43.0 °
Period: 95.8 minutes
Semi major axis: 6937 km
RCS: Unknown
Launch date: August 17, 2023
Source: United States (US)
Launch site: AIR FORCE EASTERN TEST RANGE (AFETR)
Your satellite tracking list
Your tracking list is empty




NASA's NSSDC Master Catalog

Two Line Element Set (TLE):
1 57640U 23122J   24324.59205760 -.00000170  00000-0  24942-5 0  9996
2 57640  43.0004 156.2834 0001376 234.1560 125.9154 15.02532949 70691
Source of the keplerian elements: AFSPC